EHI
0 0 0 0 0 0 0 0 0 1 0 0 0 1 2 3 4 6 11 14 16 19 23 22 20 18 20 28 37 36 32 33 34 30 24 17 13 12 13 14 17 21 19 16
0 0 0 0 0 0 0 0 1 1 1 0 0 0 2 3 4 6 10 14 17 21 26 27 26 23 24 30 38 39 37 38 36 31 25 19 15 14 14 16 20 23 21 19
0 0 0 0 0 0 0 0 1 1 1 1 1 0 1 3 4 5 8 12 16 21 28 33 33 31 30 33 39 43 46 47 42 33 26 21 17 16 16 19 23 25 23 21
0 0 0 0 0 0 0 0 0 1 1 1 1 0 1 3 4 4 7 10 14 19 27 34 38 37 35 34 39 48 54 54 47 37 28 24 21 19 19 21 24 26 25 23
0 0 0 0 0 0 0 0 0 0 1 1 0 1 3 4 4 5 6 8 11 17 24 32 38 40 36 33 40 52 59 58 50 41 34 29 24 22 22 22 23 25 25 25
0 0 0 0 0 0 0 0 0 0 0 0 0 1 3 5 6 6 7 9 11 15 22 30 37 39 36 33 39 52 61 60 53 44 38 33 29 27 27 25 23 21 21 22
0 0 0 0 0 0 0 0 0 0 0 0 0 1 2 4 6 7 9 10 12 15 20 28 35 38 35 32 38 51 61 61 54 46 41 37 35 32 30 27 23 19 18 19
0 0 0 0 0 0 0 0 0 0 0 0 0 1 2 3 5 8 10 11 13 15 18 24 32 35 34 33 38 50 59 60 53 47 43 42 40 35 31 28 23 18 17 17
0 0 0 0 0 0 0 0 0 0 0 0 0 2 3 3 4 7 10 12 13 15 17 22 29 33 33 34 38 47 56 58 54 48 46 46 43 36 31 29 24 21 18 16
0 0 0 0 0 0 0 0 0 0 0 0 0 1 3 3 4 7 11 12 14 16 19 24 29 33 33 33 35 42 51 55 53 48 46 46 43 37 32 30 28 26 23 20
0 0 0 0 0 0 0 0 0 0 0 0 0 1 1 2 4 9 13 16 16 17 21 26 31 34 35 34 33 36 44 50 50 47 46 45 43 40 35 33 33 34 31 29
0 0 0 0 0 0 0 0 0 0 0 0 0 0 0 2 5 11 17 19 19 20 23 26 29 34 37 36 34 35 39 45 46 44 42 42 43 41 37 36 37 38 37 33
0 0 0 0 0 0 0 0 0 0 0 0 0 1 2 4 8 13 19 23 23 24 27 29 31 36 39 41 41 40 40 43 43 40 37 37 39 40 38 36 38 38 35 33
0 0 0 0 0 0 0 0 0 0 1 1 1 2 3 6 10 14 22 27 27 29 33 37 40 42 43 45 46 44 42 42 42 40 38 36 37 39 38 37 37 36 33 32
0 0 0 0 0 0 0 0 0 0 1 2 2 3 4 7 11 17 26 32 31 33 38 43 47 47 46 47 46 43 41 42 44 44 43 40 37 38 39 38 36 34 32 29
0 0 0 0 0 0 0 0 0 0 1 3 3 4 6 11 16 21 29 34 36 38 39 42 45 44 42 44 44 40 39 41 45 45 42 38 35 34 35 34 31 30 28 26
0 0 0 0 0 0 0 0 0 0 1 3 4 6 10 15 19 23 27 32 36 38 39 39 36 34 34 38 40 38 36 38 42 42 38 34 30 27 27 27 27 28 27 25
0 0 0 0 0 0 0 0 0 1 2 3 4 7 13 18 19 22 26 31 36 38 39 37 32 27 28 33 38 37 34 34 37 37 34 30 27 25 24 25 27 28 27 26
0 0 0 0 0 0 0 0 0 1 2 4 5 7 13 18 19 21 27 34 40 41 39 36 32 28 28 33 39 39 34 32 32 31 29 26 25 27 28 28 28 28 26 25
0 0 0 0 0 0 0 0 0 0 2 5 7 9 14 19 22 26 31 37 44 43 38 34 33 31 31 35 39 38 34 30 28 26 25 23 25 28 29 29 28 26 24 23
0 0 0 0 0 0 1 1 2 4 7 9 11 14 19 24 28 32 35 39 44 43 37 34 34 33 35 37 37 35 30 28 27 26 25 25 26 28 28 29 27 24 23 22
0 0 0 0 1 1 2 4 7 11 14 15 17 19 22 26 29 33 37 39 40 41 38 34 32 33 36 38 38 34 30 29 30 31 29 28 27 26 26 27 26 25 24 23
0 0 1 2 2 2 3 6 10 15 17 17 19 21 21 21 26 32 36 37 37 38 35 29 26 30 35 38 37 36 35 33 33 33 30 27 25 23 23 24 25 24 22 21
1 1 2 3 2 2 4 6 10 15 17 16 16 17 17 18 24 32 37 38 36 34 30 25 24 28 33 35 35 35 36 34 32 30 28 26 23 20 19 20 20 18 16 16
3 3 3 4 5 6 7 8 11 13 14 13 12 11 12 16 24 30 36 38 35 31 28 25 26 29 30 30 29 30 32 31 27 26 25 24 21 17 15 14 14 11 9 8
3 3 4 6 8 9 11 11 12 12 11 11 9 9 11 16 22 28 33 37 34 29 27 26 27 29 29 27 25 26 29 28 25 23 22 21 18 15 12 11 10 6 3 3
Wind_Speed
13 12 9 10 11 9 5 5 5 2 1 3 2 3 5 7 7 9 10 10 10 10 11 11 10 10 10 8 7 6 5 4 3 2 2 2 2 2 2 2 3 3 2 2
12 13 13 11 10 9 6 6 7 4 3 4 4 4 5 7 8 8 9 10 11 11 11 11 11 10 10 9 8 7 5 5 3 2 1 1 1 1 2 2 3 3 2 2
14 12 11 11 11 9 8 8 7 6 6 6 5 6 5 7 7 8 8 9 10 12 13 13 12 10 10 10 9 7 6 5 5 4 2 1 1 1 1 2 2 2 2 2
13 13 11 10 11 10 8 9 7 7 7 6 5 5 6 7 8 8 8 9 9 12 13 13 12 11 10 10 10 8 7 6 5 4 3 3 3 2 2 2 2 3 3 2
13 13 13 12 11 10 9 8 6 7 7 10 8 6 5 8 9 9 9 9 9 10 13 14 13 12 10 10 10 9 7 6 5 4 4 3 2 2 2 2 2 3 3 3
16 14 13 12 11 10 10 9 8 9 8 11 11 7 5 6 9 9 9 8 8 10 11 12 13 11 10 10 10 10 8 6 6 5 4 3 3 2 2 2 2 2 2 3
16 16 14 12 12 11 12 8 6 7 7 8 7 5 2 4 7 8 8 8 8 8 10 11 12 12 10 10 10 9 9 8 6 6 5 4 3 3 3 3 3 3 2 2
13 13 13 11 12 11 11 11 9 8 7 5 5 5 3 4 6 7 8 8 8 9 10 11 11 12 11 11 10 10 9 8 7 7 5 4 4 3 3 3 2 2 1 1
11 10 9 10 10 12 12 12 13 12 11 8 5 4 3 5 6 8 9 9 9 8 8 9 10 10 10 10 9 10 10 8 7 7 6 5 4 4 2 2 2 1 1 2
11 10 9 9 9 13 14 13 10 9 8 8 6 6 4 6 6 7 8 9 8 7 8 8 8 7 7 7 7 8 9 9 7 7 6 6 5 4 3 2 1 1 1 1
12 11 11 11 12 13 12 13 11 8 8 9 6 2 1 4 5 6 7 9 8 7 8 7 7 7 7 7 7 8 8 8 7 6 5 4 5 4 3 2 1 1 1 1
10 10 11 13 11 10 10 11 11 8 7 7 6 3 1 1 3 4 7 8 7 6 6 8 7 5 5 6 5 5 6 6 6 5 5 5 4 4 3 2 2 2 1 1
6 7 10 11 9 9 10 12 12 11 8 7 7 4 4 3 3 5 6 7 7 5 5 7 7 6 3 3 4 5 5 5 5 5 5 4 4 4 3 3 2 2 2 2
6 9 11 11 7 7 11 14 13 11 8 7 7 4 3 1 0 3 7 6 7 7 6 7 6 7 5 3 3 4 4 3 4 4 3 3 2 2 2 2 2 2 2 1
8 11 12 13 13 13 13 13 12 11 11 10 7 6 5 4 3 3 6 6 5 6 6 6 6 5 5 4 3 3 3 3 3 3 3 3 2 1 1 1 1 2 2 3
8 9 12 15 16 15 15 12 11 11 11 9 7 6 4 3 3 4 6 5 4 6 5 5 5 5 5 4 3 3 3 3 3 4 3 3 2 2 1 1 1 1 2 2
9 9 12 13 13 14 15 11 10 10 9 7 6 4 4 4 4 5 6 5 4 5 5 4 4 4 4 5 4 3 3 3 3 3 3 3 3 2 2 1 1 2 2 1
10 9 8 10 12 15 12 9 8 8 7 6 5 1 2 4 4 5 6 5 4 4 4 4 3 3 3 4 4 3 4 3 3 3 2 2 3 2 2 2 2 2 2 2
9 8 9 9 12 13 11 7 6 6 6 4 3 1 2 4 5 5 6 6 4 4 3 3 3 3 3 4 3 3 3 3 2 2 2 2 2 2 3 3 2 2 2 2
10 9 10 11 13 12 7 5 5 6 6 2 2 1 1 3 2 4 6 6 4 3 2 2 2 4 3 3 3 3 2 3 2 1 1 1 1 2 2 1 2 2 2 2
10 10 12 12 12 9 6 5 6 7 1 2 1 1 1 2 2 5 6 6 5 4 3 3 3 4 3 2 3 2 1 1 2 2 1 0 0 1 2 2 2 2 3 3
10 10 10 10 11 7 6 4 2 1 2 1 1 2 3 5 6 6 6 5 4 4 4 4 4 3 3 2 2 1 1 1 1 2 1 1 1 2 2 2 2 3 3 3
7 6 4 4 4 0 4 3 3 3 2 2 2 3 4 4 5 5 5 4 3 3 3 2 3 3 3 2 1 1 1 1 1 1 1 1 1 1 1 2 3 3 3 3
5 4 5 3 4 3 2 1 1 2 3 3 2 2 3 3 3 3 4 3 2 2 2 2 2 2 2 2 1 0 1 1 1 0 0 1 1 2 1 1 2 2 2 2
5 5 5 5 4 3 2 2 1 1 2 2 2 1 1 0 1 2 2 2 2 2 2 2 2 2 2 1 1 0 1 1 0 1 1 2 2 2 1 1 1 1 0 1
5 5 4 4 2 2 2 3 3 3 2 2 2 2 2 1 2 1 1 1 1 1 2 2 2 2 2 1 1 0 0 1 1 2 2 2 1 1 2 2 1 2 0 1
Wind_Direction
234 237 241 248 253 261 270 296 287 275 253 258 219 208 179 174 182 173 170 167 168 170 167 163 161 155 150 145 141 142 148 139 142 144 161 168 157 163 157 150 138 142 157 158
237 241 246 249 256 263 266 262 270 264 235 250 253 240 203 181 190 179 171 169 169 167 162 161 165 162 157 152 149 147 155 149 155 156 157 149 158 175 158 142 137 153 167 176
237 245 244 246 255 259 267 256 257 267 267 250 252 260 218 179 180 172 174 173 174 169 167 167 168 167 164 162 160 163 164 160 169 168 166 178 147 167 141 148 149 171 172 181
247 249 253 253 258 258 260 269 276 283 281 278 249 251 215 196 183 174 175 176 180 171 167 167 169 169 171 167 164 158 161 166 166 173 179 184 178 185 176 178 163 175 182 188
252 247 250 251 258 266 266 277 288 286 281 281 258 252 225 195 176 170 176 179 178 169 167 168 169 167 173 170 164 159 159 166 166 178 182 200 195 184 184 182 164 174 183 191
256 256 252 254 256 259 266 268 271 264 259 260 254 242 218 187 173 170 169 170 169 166 163 163 159 160 173 170 166 162 156 163 170 179 186 197 209 206 199 201 175 196 190 191
248 247 246 244 247 243 250 250 253 254 251 255 256 236 207 173 159 156 155 158 160 156 155 155 155 159 175 173 167 159 157 167 174 180 190 193 208 215 209 228 206 206 200 175
249 241 234 231 239 246 242 246 253 263 256 248 243 247 161 158 146 147 149 149 153 155 158 158 160 164 176 174 167 162 159 168 178 181 186 188 191 216 219 219 247 210 217 193
257 255 244 234 236 248 250 246 255 266 266 267 236 203 190 159 152 154 148 150 154 153 153 160 163 166 169 167 167 166 161 169 179 182 184 185 190 211 221 206 236 242 243 223
263 274 260 241 238 239 252 257 258 257 273 281 268 218 198 171 161 155 151 148 142 149 154 158 154 148 148 148 160 162 158 165 174 179 189 186 189 203 214 213 200 252 264 302
247 256 255 239 230 240 235 246 258 275 273 267 265 271 202 192 171 164 155 141 145 152 157 156 144 141 144 148 160 158 157 160 168 178 183 182 175 184 198 203 201 213 295 308
242 257 256 251 242 240 250 252 253 256 264 271 270 254 258 179 184 170 140 133 134 148 143 134 130 130 137 144 144 144 149 156 165 167 173 183 168 176 193 189 187 188 208 237
265 263 262 249 243 232 239 251 254 259 260 257 255 234 219 189 180 147 127 125 121 113 115 120 123 121 121 139 132 139 147 155 160 168 179 175 171 172 180 181 182 190 203 214
270 257 259 258 256 250 247 250 253 256 261 258 248 223 225 178 139 119 114 114 126 128 120 123 131 134 137 126 116 129 140 145 145 151 153 141 157 158 172 182 167 177 197 196
246 255 260 265 264 255 252 247 244 246 256 260 250 226 223 189 175 134 117 118 118 116 119 121 124 123 128 135 133 137 141 135 127 132 133 133 140 127 113 144 192 193 191 198
251 264 268 266 265 263 258 255 256 247 245 249 248 243 202 164 148 128 120 125 130 116 107 108 115 118 134 140 149 143 144 143 134 142 146 137 153 155 171 187 201 232 209 201
246 253 258 263 262 262 256 253 252 261 255 249 246 225 171 157 153 137 130 140 131 120 117 116 124 145 144 142 137 152 146 139 148 153 156 152 163 177 205 217 218 241 248 226
244 253 253 259 268 255 257 264 258 257 269 270 265 237 159 146 133 126 125 119 116 105 109 113 116 115 136 127 135 157 148 143 151 150 158 153 174 189 192 201 214 237 249 232
253 247 256 256 256 254 258 266 274 266 268 281 279 178 134 129 130 119 99 93 84 87 93 109 120 110 105 114 125 145 149 145 146 166 178 176 190 200 201 204 219 220 233 233
235 235 246 252 257 256 263 279 280 258 232 269 310 285 162 162 177 119 100 99 101 96 84 94 97 87 87 104 107 126 143 139 144 161 212 190 194 224 222 211 238 233 235 236
226 229 239 251 257 259 281 274 269 258 257 24 136 175 107 79 56 97 101 105 113 111 106 92 88 86 74 83 99 103 115 113 117 113 90 29 236 223 178 180 227 237 239 242
240 235 235 245 250 255 322 299 297 42 19 26 83 91 91 83 86 92 94 97 102 103 98 104 100 92 87 78 89 112 74 68 106 125 144 165 189 246 180 174 209 222 235 234
244 256 254 250 242 223 318 336 40 64 62 40 66 64 80 92 93 95 97 100 101 102 97 106 115 110 105 90 92 127 86 66 92 117 160 195 220 237 212 202 219 219 221 229
243 265 270 278 255 225 226 157 35 22 45 44 44 65 69 71 90 100 111 109 111 112 109 117 122 119 110 106 96 27 82 80 85 181 230 220 223 228 237 256 239 236 234 231
290 285 269 263 258 312 332 19 60 6 346 9 9 36 50 60 111 108 112 121 139 146 142 143 136 127 126 131 131 355 58 84 247 245 231 231 239 242 226 243 321 270 270 257
274 274 272 278 326 329 324 354 350 329 321 328 352 1 318 268 141 139 134 128 163 168 153 152 151 149 150 158 152 222 132 197 236 237 243 244 242 250 239 205 187 43 23 100